Weather History for Hartford, CT

Change the Weather History Date:

Wednesday, November 6, 2013

  Actual Average Record
Temperature  
Mean Temperature 48 °F -  
Max Temperature 61 °F 54 °F 72 °F (1948)
Min Temperature 36 °F 36 °F 23 °F (1954)
Degree Days  
Heating Degree Days 16    
Moisture  
Dew Point 43 °F    
Average Humidity 77    
Maximum Humidity 96    
Minimum Humidity 50    
Precipitation  
Precipitation 0.00 in - - ()
Sea Level Pressure  
Sea Level Pressure 30.29 in    
Wind  
Wind Speed 4 mph (South)    
Max Wind Speed 13 mph    
Max Gust Speed 20 mph    
Visibility 10 miles    
Events      
Averages and records for this station are not official NWS values.
T = Trace of Precipitation, MM = Missing Value Source: NWS Daily Summary

Daily Weather History Graph

Daily Weather History Graph

Search for Another Location

Airport:

Trip Planner

Search our weather history database for the weather conditions in past years. The results will help you decide how hot, cold, wet, or windy it might be!

Date:

Astronomy

Nov. 06, 2013 Rise Set
Actual Time 6:29 AM EST 4:38 PM EST
Civil Twilight 5:59 AM EST 5:08 PM EST
Nautical Twilight 5:26 AM EST 5:41 PM EST
Astronomical Twilight 4:54 AM EST 6:13 PM EST
Moon 9:42 AM EST (11/6) 7:39 PM EST (11/6)
Length of Visible Light 11h 08m
Length of Day
10h 09m
Waxing Crescent, 13% of the Moon is Illuminated
Nov 6
Waxing Crescent
Nov 10
First Quarter
Nov 17
Full
Nov 25
Last Quarter
Dec 2
New

Hourly Weather History & Observations

Time (EST) Temp. Dew Point Humidity Pressure Visibility Wind Dir Wind Speed Gust Speed Precip Events Conditions
12:53 AM 43.0 °F 37.0 °F 80% 30.49 in 10.0 mi Calm Calm - N/A   Clear
1:53 AM 43.0 °F 37.9 °F 82% 30.49 in 10.0 mi Calm Calm - N/A   Partly Cloudy
2:53 AM 39.9 °F 37.0 °F 89% 30.47 in 10.0 mi Calm Calm - N/A   Clear
3:53 AM 39.9 °F 37.0 °F 89% 30.46 in 10.0 mi Calm Calm - N/A   Clear
4:20 AM 37.0 °F 36.0 °F 96% 30.46 in 1.8 mi Calm Calm - N/A   Partly Cloudy
4:29 AM 36.0 °F 34.0 °F 93% 30.46 in 4.0 mi Calm Calm - N/A   Partly Cloudy
4:53 AM 37.9 °F 36.0 °F 93% 30.46 in 8.0 mi Calm Calm - N/A   Clear
5:53 AM 39.0 °F 36.0 °F 89% 30.45 in 10.0 mi Calm Calm - N/A   Clear
6:53 AM 39.0 °F 37.0 °F 93% 30.43 in 10.0 mi Calm Calm - N/A   Clear
7:53 AM 42.1 °F 39.9 °F 92% 30.43 in 10.0 mi Calm Calm - N/A   Clear
8:53 AM 51.1 °F 43.0 °F 74% 30.41 in 10.0 mi SSE 4.6 mph - N/A   Clear
9:53 AM 57.0 °F 44.1 °F 62% 30.37 in 10.0 mi South 10.4 mph - N/A   Clear
10:53 AM 57.9 °F 42.1 °F 56% 30.36 in 10.0 mi SSW 9.2 mph 19.6 mph N/A   Scattered Clouds
11:53 AM 61.0 °F 43.0 °F 52% 30.32 in 10.0 mi SSW 9.2 mph - N/A   Scattered Clouds
12:53 PM 61.0 °F 43.0 °F 52% 30.28 in 10.0 mi SW 8.1 mph 17.3 mph N/A   Partly Cloudy
1:53 PM 61.0 °F 42.1 °F 50% 30.25 in 10.0 mi South 10.4 mph - N/A   Partly Cloudy
2:53 PM 60.1 °F 43.0 °F 53% 30.24 in 10.0 mi SSW 8.1 mph - N/A   Mostly Cloudy
3:53 PM 59.0 °F 42.1 °F 53% 30.23 in 10.0 mi SSW 9.2 mph - N/A   Scattered Clouds
4:53 PM 59.0 °F 44.1 °F 58% 30.22 in 10.0 mi South 12.7 mph - N/A   Overcast
5:53 PM 57.9 °F 46.0 °F 65% 30.20 in 10.0 mi South 8.1 mph - N/A   Overcast
6:53 PM 57.9 °F 48.0 °F 70% 30.19 in 10.0 mi South 10.4 mph - N/A   Overcast
7:53 PM 55.0 °F 48.9 °F 80% 30.17 in 10.0 mi South 8.1 mph - N/A   Partly Cloudy
8:53 PM 54.0 °F 48.9 °F 83% 30.14 in 10.0 mi South 6.9 mph - N/A   Partly Cloudy
9:25 PM 54.0 °F 50.0 °F 86% 30.13 in 10.0 mi South 8.1 mph - N/A   Mostly Cloudy
9:53 PM 54.0 °F 50.0 °F 86% 30.13 in 10.0 mi South 6.9 mph - N/A   Mostly Cloudy
10:01 PM 55.0 °F 50.0 °F 83% 30.12 in 10.0 mi South 5.8 mph - N/A   Mostly Cloudy
10:29 PM 54.0 °F 50.0 °F 86% 30.10 in 10.0 mi South 6.9 mph - N/A   Mostly Cloudy
10:40 PM 54.0 °F 50.0 °F 86% 30.09 in 10.0 mi South 6.9 mph - N/A   Mostly Cloudy
10:53 PM 55.0 °F 50.0 °F 83% 30.09 in 10.0 mi South 6.9 mph - N/A   Mostly Cloudy
11:53 PM 55.9 °F 52.0 °F 87% 30.07 in 10.0 mi SSW 6.9 mph - N/A   Mostly Cloudy